Location: Eindhoven
(51.4416°N, 5.4697°E)
Time: 07:21:49
(UTC+01:00)

deb Explorer IX - Pass Details

Date: 18 November 2019
Orbit: 546 x 1104 km, 38.8° (Epoch: 11 December)

Event Time Altitude Azimuth Distance (km) Brightness Sun altitude
Rises 01:48:28 0° 211° (SSW) 3,646 - -53.6°
Reaches altitude 10° 01:52:39 10° 187° (S) 2,575 - -53.2°
Maximum altitude 01:55:31 14° 159° (SSE) 2,228 - -52.9°
Drops below altitude 10° 01:58:14 10° 130° (SE) 2,387 - -52.7°
Sets 02:01:49 0° 105° (ESE) 3,185 - -52.3°
